Overview Statistics Trail Chart Weather Telemetry Raw packets
 

This is the latest recevied weather packets stored in our database for station/object KC5TIL. If no packets are shown the sender has not sent any weather packets the latest 10 day(s).

<< 100 101 102 103 104 105 106 >>
Time Temp. Humidity Pressure Rain* Wind** Luminosity Snow
1787855542 37.22° C 44% 1016 hPa 0 mm - 686 W/m² -
1787855237 36.67° C 45% 1015.9 hPa 0 mm - 687 W/m² -
1787854932 37.22° C 43% 1016 hPa 0 mm - 689 W/m² -
1787854627 37.78° C 43% 1016.1 hPa 0 mm - 682 W/m² -
1787854321 37.22° C 43% 1016.3 hPa 0 mm - 674 W/m² -
1787854016 36.67° C 44% 1016.2 hPa 0 mm - 669 W/m² -
1787853710 36.67° C 45% 1016.4 hPa 0 mm - 669 W/m² -
1787853103 36.67° C 45% 1016.3 hPa 0 mm - 694 W/m² -
1787852798 36.67° C 44% 1016.3 hPa 0 mm - 684 W/m² -
1787852496 36.67° C 45% 1016.4 hPa 0 mm - 707 W/m² -
1787852192 36.67° C 46% 1016.5 hPa 0 mm - 700 W/m² -
1787851886 36.67° C 45% 1016.4 hPa 0 mm - 692 W/m² -
1787851585 36.11° C 47% 1016.5 hPa 0 mm - 695 W/m² -
1787851280 36.11° C 46% 1016.5 hPa 0 mm - 704 W/m² -
1787850976 36.11° C 48% 1016.7 hPa 0 mm - 686 W/m² -
1787850672 36.11° C 47% 1016.8 hPa 0 mm - 711 W/m² -
1787850368 35.56° C 48% 1016.6 hPa 0 mm - 751 W/m² -
1787850063 35.56° C 49% 1016.6 hPa 0 mm - 740 W/m² -
1787849762 36.11° C 48% 1016.7 hPa 0 mm - 732 W/m² -
1787849456 36.11° C 46% 1016.7 hPa 0 mm - 767 W/m² -
1787849155 35.56° C 52% 1016.7 hPa 0 mm - 755 W/m² -
1787848850 35.56° C 50% 1016.8 hPa 0 mm - 727 W/m² -
1787848549 35.56° C 49% 1016.7 hPa 0 mm - 787 W/m² -
1787848249 35° C 52% 1016.8 hPa 0 mm - 789 W/m² -
1787847944 35.56° C 50% 1016.8 hPa 0 mm - 785 W/m² -

* Rain latest hour (hover to see other rain measurements)
** Current wind speed in m/s (hover to see current wind gust speed)